Orbital Elements at Epoch 2459200.5 (2020-Dec-17.0) TDB
Reference: JPL 33 (heliocentric ecliptic J2000)
Element | Value | Uncertainty (1-sigma) | Units |
e | .05524849064990868 | 1.4022e-08 | |
a | 2.390890516618867 | 7.6357e-09 | au |
q | 2.258797424266495 | 3.2934e-08 | au |
i | 3.44382562521931 | 6.7456e-07 | deg |
node | 96.74895447016637 | 6.0613e-06 | deg |
peri | 223.1412163605429 | 1.4811e-05 | deg |
M | 237.8966302650491 | 1.2849e-05 | deg |
tp | 2459658.497502454910 (2022-Mar-19.99750246) | 4.8978e-05 | TDB |
period | 1350.323920147902 3.70 | 6.4687e-06 1.771e-08 | d yr |
n | .2666026977886675 | 1.2772e-09 | deg/d |
Q | 2.52298360897124 | 8.0576e-09 | au |
|
| | Orbit Determination Parameters
Additional Information
|